Location: Cheadle
(51.0146°N, 113.5417°W)
Time: 13:40:25
(UTC+00:00)

Oscar 19 - Pass Details

Date: 29 November 2023
Orbit: 771 x 789 km, 98.9° (Epoch: 04 March)

Event Time Altitude Azimuth Distance (km) Brightness Sun altitude
Rises 13:34:37 0° 9° (N) 3,267 13.8 -14.7°
Reaches altitude 10° 13:37:07 10° 360° (N) 2,338 12.9 -14.3°
Maximum altitude 13:41:38 32° 299° (WNW) 1,322 11.3 -13.6°
Drops below altitude 10° 13:46:08 10° 237° (WSW) 2,334 12.7 -13.0°
Sets 13:48:39 0° 228° (SW) 3,261 13.6 -12.6°
